Regional Weather Roundup
Issued by NWS Northern Indiana

Home | Current Version | Previous Version | Graphics & Text | Print | Product List | Glossary On
Versions: 1 2 3 4 5 6 7 8 9 10 11 12 13 14 15 16 17 18 19 20 21 22 23 24 25 26 27 28 29 30 31 32 33 34 35 36 37 38 39 40 41 42 43 44 45 46 47 48 49 50
000
ASUS43 KIWX 251310
RWRIWX

KIWX WEATHER ROUNDUP
NATIONAL WEATHER SERVICE NORTHERN INDIANA
900 AM EDT SUN SEP 25 2016

NOTE: "FAIR" INDICATES FEW OR NO CLOUDS BELOW 12,000 FEET WITH NO
SIGNIFICANT WEATHER AND/OR OBSTRUCTIONS TO VISIBILITY.

* THESE STATIONS ARE NOT UNDER NWS QUALITY CONTROL. THEY ALSO MAY NOT
  REPORT WEATHER SUCH AS PRECIPITATION OR FOG.

INZ001>027-251400-
NORTHERN INDIANA

CITY           SKY/WX    TMP DP  RH WIND       PRES   REMARKS
GARY*          MOSUNNY   64  54  68 SE14      30.11S
VALPARAISO     SUNNY     61  52  72 E6        30.14R
MICHIGAN CITY* SUNNY     61  50  67 MISG      30.13S
LAPORTE*       MOSUNNY   62  56  82 E5        30.15S
KNOX*          SUNNY     59  34  38 SE5       30.14S
SOUTH BEND     SUNNY     60  52  74 SE12      30.16S
ELKHART*       SUNNY    N/A N/A N/A E6        30.16S
GOSHEN         SUNNY     60  48  64 E7        30.16S
MONTICELLO*    PTSUNNY   60  52  72 E5        30.13R
LOGANSPORT*    SUNNY     59  54  82 E7        30.15R
ROCHESTER*     SUNNY     63  55  77 E6        30.15S
WARSAW*        SUNNY     59  43  55 SE5       30.16R
ANGOLA*          N/A     57  46  67 SE8       30.18F
FORT WAYNE     MOSUNNY   58  51  78 E6        30.17S
HUNTINGTON*    SUNNY     58  53  84 E7        30.15F
PERU/GRISSOM   SUNNY     61  55  80 SE8       30.13S
MARION*        SUNNY     60  54  79 SE8       30.15F

$$
INZ028>050-251400-
CENTRAL INDIANA

CITY           SKY/WX    TMP DP  RH WIND       PRES   REMARKS
LAFAYETTE      SUNNY     63  60  90 E6        30.12S
MUNCIE*        SUNNY     62  55  77 SE6       30.15S
INDIANAPOLIS   SUNNY     65  59  81 E7        30.13R

$$
MIZ043>046-050>051-056>058-064>065-071>073-077>080-251400-
SOUTHWEST LOWER MICHIGAN

CITY           SKY/WX    TMP DP  RH WIND       PRES   REMARKS
BATTLE CREEK   SUNNY     58  51  78 S9        30.19S
BENTON HARBOR  SUNNY     61  53  75 SE10      30.14S
COLDWATER*     SUNNY     58  47  69 SE7       30.18F
HILLSDALE*       N/A     55  46  71 SE7       30.19F HAZE
HOLLAND        CLOUDY    58  54  86 SE7       30.16S
GRAND RAPIDS   PTSUNNY   56  50  80 SE7       30.18S
KALAMAZOO      CLOUDY    58  51  78 VRB6      30.19R
STURGIS*       SUNNY     60  47  64 SE5       30.17S
THREE RIVERS*  PTSUNNY   60  52  75 SE5       30.18S

$$
OHZ001>008-015>018-024>025-251400-
NORTHWEST OHIO

CITY           SKY/WX    TMP DP  RH WIND       PRES   REMARKS
WAUSEON*       FAIR      57  50  77 E3        30.20S
DEFIANCE       SUNNY     57  49  74 E5        30.19S
FINDLAY        SUNNY     57  47  69 E7        30.18S
TOLEDO EXPRESS SUNNY     55  51  86 E3        30.19F
TOLEDO METCALF SUNNY     57  49  74 E7        30.21S
LIMA           SUNNY     57  52  83 E7        30.18S

$$
AND FOR LAKE MICHIGAN COASTAL AND OPEN LAKE BUOY OBSERVATIONS

STATION/POSITION TEMP    WIND        PRES    VSBY  WAVE
                 AIR SEA DIR/SP/G                  HT/PER
                 (F)     (DEG/KT/KT) (MB)    (MI)  (FT/S)
CALUMET HARBOR    64     140/  9/ 12 1018.8F
MICHIGAN CITY     62     110/ 12/ 14   N/A
BURNS HARBOR      63     140/ 15/ 20 1020.0S
SAINT JOSEPH      61     240/  2/  5 1020.7
SOUTH LAKE BUOY   67 72  140/ 17/ 21 1018.9F         4/ 5
4 MI NW BRIDGMAN  62 68  120/ 14/ 17 1020.1          2/ 2
MICHIGAN CITY     63 67  150/ 12/ 16   N/A           1/ 2

$$
&&




USA.gov is the U.S. government's official web portal to all federal, state and local government web resources and services.